• In Denmark
  • List of Countries
  • For 7 days
  • Water Temperature
  • Satellite Maps
  • Weather Map
  • Weather Widgets
  • user-avatar
    Login

    Hourly Weather Ali Bayramli

    Today, 25 September, Monday

    Time Temperature Precipitation Wind Pressure Humidity
    00:00 +24°C° 0 mm 3 mps 763 mmHg 59%
    01:00 +22°C° 0 mm 3 mps 763 mmHg 61%
    02:00 +22°C° 0 mm 3 mps 762 mmHg 62%
    03:00 +22°C° 0 mm 3 mps 762 mmHg 63%
    04:00 +23°C° 0 mm 2 mps 762 mmHg 63%
    05:00 +23°C° 0 mm 2 mps 762 mmHg 63%
    06:00 +23°C° 0 mm 2 mps 763 mmHg 64%
    07:00 +24°C° 0 mm 2 mps 763 mmHg 58%
    08:00 +25°C° 0 mm 2 mps 763 mmHg 53%
    09:00 +27°C° 0 mm 2 mps 763 mmHg 47%
    10:00 +28°C° 0 mm 2 mps 763 mmHg 44%
    11:00 +29°C° 0 mm 2 mps 762 mmHg 40%
    12:00 +30°C° 0 mm 2 mps 762 mmHg 36%
    13:00 +31°C° 0 mm 3 mps 762 mmHg 34%
    14:00 +32°C° 0 mm 4 mps 762 mmHg 32%
    15:00 +32°C° 0 mm 6 mps 762 mmHg 30%
    16:00 +30°C° 0 mm 6 mps 762 mmHg 33%
    17:00 +29°C° 0 mm 7 mps 762 mmHg 36%
    18:00 +28°C° 0 mm 8 mps 762 mmHg 39%
    19:00 +27°C° 0 mm 8 mps 762 mmHg 43%
    20:00 +26°C° 0 mm 8 mps 762 mmHg 46%
    21:00 +24°C° 0 mm 8 mps 763 mmHg 50%
    22:00 +24°C° 0 mm 8 mps 763 mmHg 52%
    23:00 +24°C° 0 mm 7 mps 763 mmHg 54%

    Tomorrow, 26 September, Tuesday

    Time Temperature Precipitation Wind Pressure Humidity
    00:00 +23°C° 0 mm 7 mps 763 mmHg 57%
    01:00 +23°C° 0 mm 6 mps 762 mmHg 58%
    02:00 +22°C° 0 mm 6 mps 762 mmHg 60%
    03:00 +22°C° 0 mm 5 mps 762 mmHg 62%
    04:00 +21°C° 0 mm 5 mps 762 mmHg 64%
    05:00 +21°C° 0 mm 5 mps 762 mmHg 66%
    06:00 +21°C° 0 mm 5 mps 762 mmHg 67%
    07:00 +22°C° 0 mm 5 mps 762 mmHg 62%
    08:00 +23°C° 0 mm 5 mps 762 mmHg 57%
    09:00 +25°C° 0 mm 5 mps 762 mmHg 52%
    10:00 +26°C° 0 mm 5 mps 762 mmHg 49%
    11:00 +27°C° 0 mm 5 mps 762 mmHg 47%
    12:00 +27°C° 0 mm 5 mps 762 mmHg 45%
    13:00 +27°C° 0 mm 6 mps 762 mmHg 46%
    14:00 +27°C° 0 mm 7 mps 761 mmHg 48%
    15:00 +26°C° 0 mm 7 mps 761 mmHg 49%
    16:00 +24°C° 0 mm 7 mps 761 mmHg 51%
    17:00 +24°C° 0 mm 8 mps 761 mmHg 54%
    18:00 +23°C° 0 mm 8 mps 762 mmHg 56%
    19:00 +22°C° 0 mm 8 mps 762 mmHg 56%
    20:00 +22°C° 0 mm 8 mps 762 mmHg 57%
    21:00 +22°C° 0 mm 8 mps 763 mmHg 57%
    22:00 +22°C° 0 mm 7 mps 762 mmHg 58%
    23:00 +21°C° 0 mm 7 mps 762 mmHg 59%

    Day after tomorrow, 27 September, Wednesday

    Time Temperature Precipitation Wind Pressure Humidity
    00:00 +21°C° 0 mm 7 mps 762 mmHg 60%
    01:00 +21°C° 0 mm 7 mps 762 mmHg 61%
    02:00 +21°C° 0 mm 6 mps 761 mmHg 62%
    03:00 +21°C° 0 mm 6 mps 761 mmHg 63%
    04:00 +21°C° 0.1 mm 6 mps 761 mmHg 64%
    05:00 +21°C° 0.1 mm 5 mps 761 mmHg 65%
    06:00 +20°C° 0.1 mm 5 mps 761 mmHg 66%
    07:00 +20°C° 0.2 mm 5 mps 761 mmHg 67%
    08:00 +20°C° 0.2 mm 5 mps 761 mmHg 68%
    09:00 +20°C° 0.2 mm 6 mps 762 mmHg 69%
    10:00 +20°C° 0.2 mm 6 mps 761 mmHg 70%
    11:00 +20°C° 0.2 mm 6 mps 761 mmHg 71%
    12:00 +20°C° 0.2 mm 6 mps 761 mmHg 71%
    13:00 +20°C° 0.1 mm 6 mps 761 mmHg 71%
    14:00 +20°C° 0.1 mm 7 mps 761 mmHg 71%
    15:00 +20°C° 0.1 mm 7 mps 761 mmHg 70%
    16:00 +20°C° 0.1 mm 7 mps 761 mmHg 72%
    17:00 +20°C° 0.1 mm 8 mps 761 mmHg 73%
    18:00 +20°C° 0.1 mm 8 mps 761 mmHg 74%
    19:00 +20°C° 0.4 mm 8 mps 761 mmHg 74%
    20:00 +20°C° 0.4 mm 7 mps 762 mmHg 75%
    21:00 +18°C° 0.4 mm 7 mps 762 mmHg 75%
    22:00 +18°C° 0.7 mm 7 mps 762 mmHg 75%
    23:00 +18°C° 0.7 mm 8 mps 762 mmHg 75%

    28 September, Thursday

    Time Temperature Precipitation Wind Pressure Humidity
    00:00 +18°C° 0.7 mm 8 mps 762 mmHg 75%
    01:00 +17°C° 0.9 mm 8 mps 762 mmHg 75%
    02:00 +17°C° 0.9 mm 8 mps 762 mmHg 75%
    03:00 +17°C° 0.9 mm 8 mps 762 mmHg 74%
    04:00 +17°C° 0.7 mm 8 mps 762 mmHg 74%
    05:00 +17°C° 0.7 mm 8 mps 763 mmHg 73%
    06:00 +17°C° 0.7 mm 8 mps 763 mmHg 72%
    07:00 +17°C° 0.4 mm 9 mps 763 mmHg 71%
    08:00 +17°C° 0.4 mm 9 mps 764 mmHg 69%
    09:00 +17°C° 0.4 mm 9 mps 764 mmHg 68%
    10:00 +17°C° 0.3 mm 9 mps 764 mmHg 67%
    11:00 +17°C° 0.3 mm 9 mps 765 mmHg 67%
    12:00 +17°C° 0.3 mm 9 mps 765 mmHg 66%
    13:00 +17°C° 0.2 mm 8 mps 765 mmHg 66%
    14:00 +17°C° 0.2 mm 8 mps 765 mmHg 66%
    15:00 +17°C° 0.2 mm 8 mps 765 mmHg 66%
    16:00 +17°C° 0.2 mm 8 mps 765 mmHg 67%
    17:00 +17°C° 0.2 mm 7 mps 766 mmHg 68%
    18:00 +16°C° 0.2 mm 7 mps 766 mmHg 70%
    19:00 +16°C° 0.2 mm 7 mps 766 mmHg 71%
    20:00 +16°C° 0.2 mm 6 mps 766 mmHg 72%
    21:00 +16°C° 0.2 mm 6 mps 766 mmHg 73%
    22:00 +16°C° 0.1 mm 6 mps 766 mmHg 72%
    23:00 +16°C° 0.1 mm 6 mps 766 mmHg 71%

    29 September, Friday

    Time Temperature Precipitation Wind Pressure Humidity
    00:00 +16°C° 0.1 mm 6 mps 766 mmHg 70%
    01:00 +16°C° 0.2 mm 5 mps 765 mmHg 69%
    02:00 +16°C° 0.2 mm 5 mps 765 mmHg 68%
    03:00 +16°C° 0.2 mm 5 mps 765 mmHg 68%
    04:00 +16°C° 0.1 mm 5 mps 765 mmHg 68%
    05:00 +16°C° 0.1 mm 5 mps 765 mmHg 69%
    06:00 +16°C° 0.1 mm 5 mps 765 mmHg 69%
    07:00 +17°C° 0 mm 5 mps 766 mmHg 68%
    08:00 +17°C° 0 mm 5 mps 766 mmHg 67%
    09:00 +17°C° 0 mm 5 mps 766 mmHg 66%
    10:00 +19°C° 0 mm 5 mps 765 mmHg 63%
    11:00 +19°C° 0 mm 5 mps 765 mmHg 60%
    12:00 +20°C° 0 mm 5 mps 765 mmHg 57%
    13:00 +20°C° 0 mm 5 mps 765 mmHg 56%
    14:00 +21°C° 0 mm 5 mps 764 mmHg 54%
    15:00 +21°C° 0 mm 4 mps 764 mmHg 53%
    16:00 +20°C° 0 mm 4 mps 764 mmHg 54%
    17:00 +20°C° 0 mm 4 mps 764 mmHg 55%
    18:00 +20°C° 0 mm 4 mps 764 mmHg 56%
    19:00 +20°C° 0 mm 3 mps 764 mmHg 56%
    20:00 +19°C° 0 mm 3 mps 764 mmHg 57%
    21:00 +19°C° 0 mm 3 mps 764 mmHg 57%
    22:00 +19°C° 0 mm 3 mps 764 mmHg 57%
    23:00 +19°C° 0 mm 3 mps 763 mmHg 56%

    30 September, Saturday

    Time Temperature Precipitation Wind Pressure Humidity
    00:00 +19°C° 0 mm 3 mps 763 mmHg 55%
    01:00 +19°C° 0 mm 3 mps 763 mmHg 55%
    02:00 +19°C° 0 mm 3 mps 762 mmHg 55%
    03:00 +19°C° 0 mm 3 mps 762 mmHg 55%
    04:00 +19°C° 0 mm 2 mps 762 mmHg 55%
    05:00 +19°C° 0 mm 2 mps 762 mmHg 55%
    06:00 +19°C° 0 mm 2 mps 761 mmHg 55%
    07:00 +20°C° 0 mm 2 mps 761 mmHg 54%
    08:00 +20°C° 0 mm 2 mps 761 mmHg 53%
    09:00 +21°C° 0 mm 3 mps 761 mmHg 51%
    10:00 +22°C° 0 mm 3 mps 760 mmHg 51%
    11:00 +22°C° 0 mm 3 mps 759 mmHg 51%
    12:00 +24°C° 0 mm 3 mps 759 mmHg 51%
    13:00 +24°C° 0 mm 3 mps 758 mmHg 53%
    14:00 +25°C° 0 mm 3 mps 757 mmHg 55%
    15:00 +25°C° 0 mm 3 mps 757 mmHg 56%
    16:00 +25°C° 0.1 mm 3 mps 757 mmHg 59%
    17:00 +25°C° 0.1 mm 2 mps 757 mmHg 62%
    18:00 +24°C° 0.1 mm 2 mps 757 mmHg 64%
    19:00 +24°C° 0.3 mm 2 mps 757 mmHg 66%
    20:00 +23°C° 0.3 mm 2 mps 758 mmHg 68%
    21:00 +23°C° 0.3 mm 2 mps 758 mmHg 69%
    22:00 +23°C° 0 mm 2 mps 757 mmHg 70%
    23:00 +21°C° 0 mm 2 mps 757 mmHg 70%
    Show more